Location: Newark
(34.0131°N, 4.3314°W)
Time: 12:13:31
(UTC+00:00)

Courier 1B - Pass Details

Date: 25 October 2019
Orbit: 963 x 1209 km, 28.3° (Epoch: 11 November)

Event Time Altitude Azimuth Distance (km) Brightness Sun altitude
Rises 20:54:01 0° 271° (W) 4,108 11.5 -42.3°
Reaches altitude 10° 20:57:14 10° 261° (W) 3,141 10.7 -42.9°
Enters shadow 21:01:02 25° 238° (WSW) 2,217 9.5 -43.7°
